CW2654 Weather Reports


time (UTC)temp
C
wind
direction
speed
KPH
gust
KPH
rain 1hr
cm
rain 24hr
cm
rain mn
cm
humidity
%
barometer
mb
20260508073102 7 107 1.6 6.4 0.00 0.00 0.00 91 1016.8
20260508071554 7 107 3.2 6.4 0.00 0.00 0.00 91 1016.8
20260508070052 7 99 1.6 6.4 0.00 0.00 0.00 90 1016.9
20260508064556 7 103 1.6 6.4 0.00 0.00 0.00 90 1016.9
20260508063058 7 103 3.2 9.7 0.00 0.00 0.00 90 1017.0
20260508061552 7 105 1.6 6.4 0.00 0.00 0.00 90 1017.0
20260508060111 7 109 3.2 6.4 0.00 0.00 0.00 90 1017.1
20260508054639 8 105 3.2 6.4 0.00 0.00 0.00 90 1017.1
20260508053053 8 98 3.2 6.4 0.00 0.00 0.00 89 1017.1
20260508051552 8 90 3.2 4.8 0.00 0.00 0.00 88 1017.1
20260508050053 8 105 3.2 6.4 0.00 0.00 0.00 88 1017.1
20260508044551 9 107 3.2 9.7 0.00 0.00 0.00 88 1017.1
20260508043058 10 110 3.2 6.4 0.00 0.00 0.00 87 1017.0
20260508041554 10 105 3.2 6.4 0.00 0.00 0.00 85 1017.0
20260508040055 11 108 0.0 4.8 0.00 0.00 0.00 84 1016.7
20260508034553 11 107 1.6 6.4 0.00 0.00 0.00 82 1016.4
20260508033049 12 100 1.6 6.4 0.00 0.00 0.00 80 1016.3
20260508031601 13 0 0.0 3.2 0.00 0.00 0.00 77 1016.2
20260508030104 14 0 0.0 3.2 0.00 0.00 0.00 74 1016.3
20260508024604 15 0 0.0 3.2 0.00 0.00 0.00 69 1016.2
20260508023057 16 0 0.0 1.6 0.00 0.00 0.00 63 1016.4
20260508021558 17 0 0.0 0.0 0.00 0.00 0.00 59 1016.5
20260508020104 17 0 0.0 0.0 0.00 0.00 0.00 55 1016.6
20260508014602 17 0 0.0 0.0 0.00 0.00 0.00 53 1016.7
20260508013051 17 0 0.0 4.8 0.00 0.00 0.00 54 1016.5
20260508011554 18 0 0.0 3.2 0.00 0.00 0.00 47 1016.7
20260508010054 18 0 0.0 1.6 0.00 0.00 0.00 50 1016.8
20260508004553 18 0 0.0 6.4 0.00 0.00 0.00 46 1017.0
20260508003055 17 0 0.0 6.4 0.00 0.00 0.00 47 1017.2
20260508001553 17 0 0.0 6.4 0.00 0.00 0.00 50 1017.1
20260508000056 18 323 1.6 4.8 0.00 0.00 0.00 46 1017.4
20260507234553 18 0 0.0 8.0 0.00 0.00 0.00 51 1017.3
20260507233055 18 13 0.0 6.4 0.00 0.00 0.00 46 1017.6
20260507231555 18 254 0.0 9.7 0.00 0.00 0.00 56 1017.6
20260507230054 18 186 0.0 6.4 0.00 0.00 0.00 54 1017.6
20260507224557 17 0 1.6 8.0 0.00 0.00 0.00 55 1017.9
20260507223052 17 0 1.6 6.4 0.00 0.00 0.00 55 1018.0
20260507221554 17 296 3.2 14.5 0.00 0.00 0.00 56 1018.1
20260507220056 17 0 0.0 6.4 0.00 0.00 0.00 59 1018.3
20260507214552 17 24 1.6 6.4 0.00 0.00 0.00 61 1018.5
20260507213051 16 0 0.0 4.8 0.00 0.00 0.00 62 1018.7
20260507211555 16 323 1.6 9.7 0.00 0.00 0.00 62 1018.9
20260507204551 16 310 3.2 6.4 0.00 0.00 0.00 68 1019.0
20260507203055 15 0 0.0 8.0 0.00 0.00 0.00 70 1019.2
20260507201549 15 329 0.0 6.4 0.00 0.00 0.00 69 1019.3
20260507200051 15 336 1.6 11.3 0.00 0.00 0.00 69 1019.3
20260507194554 15 298 1.6 6.4 0.00 0.00 0.00 70 1019.5
20260507193055 14 0 1.6 6.4 0.00 0.00 0.00 70 1019.7
20260507191553 14 0 1.6 8.0 0.00 0.00 0.00 74 1019.7
20260507190052 13 19 1.6 12.9 0.00 0.00 0.00 73 1020.0
20260507184554 13 0 1.6 12.9 0.00 0.00 0.00 72 1020.0
20260507183057 13 0 3.2 9.7 0.00 0.00 0.00 73 1020.1
20260507181552 13 352 0.0 6.4 0.00 0.00 0.00 74 1020.4
20260507180101 12 0 1.6 4.8 0.00 0.00 0.00 74 1020.4
20260507174608 12 324 0.0 4.8 0.00 0.00 0.00 78 1020.6
20260507173056 12 0 0.0 6.4 0.00 0.00 0.00 80 1020.7
20260507171610 11 0 1.6 8.0 0.00 0.00 0.00 79 1020.7
20260507170054 11 272 1.6 6.4 0.00 0.00 0.00 82 1020.6
20260507164556 11 0 1.6 4.8 0.00 0.00 0.00 81 1020.6
20260507163054 10 0 0.0 3.2 0.00 0.00 0.00 82 1020.5
20260507161601 10 315 0.0 4.8 0.00 0.00 0.00 85 1020.4
20260507160058 10 0 0.0 1.6 0.00 0.00 0.00 85 1020.5
20260507154601 10 0 0.0 1.6 0.00 0.00 0.00 86 1020.5
20260507153103 10 0 0.0 3.2 0.00 0.00 0.00 84 1020.6
20260507151554 9 0 0.0 3.2 0.00 0.00 0.00 85 1020.6
20260507150057 9 0 0.0 6.4 0.00 0.00 0.00 85 1020.6
20260507144555 8 0 0.0 3.2 0.00 0.00 0.00 85 1020.6
20260507143057 8 0 0.0 3.2 0.00 0.00 0.00 86 1020.5
20260507141556 8 0 0.0 1.6 0.00 0.00 0.00 87 1020.6
20260507140106 8 0 0.0 4.8 0.00 0.00 0.00 87 1020.4
20260507134552 8 0 0.0 6.4 0.00 0.00 0.00 87 1020.4
20260507133055 8 0 0.0 3.2 0.00 0.00 0.00 87 1020.4
20260507131550 8 0 0.0 6.4 0.00 0.00 0.00 88 1020.4
20260507130106 8 0 0.0 1.6 0.00 0.00 0.00 88 1020.4
20260507124620 8 0 0.0 4.8 0.00 0.00 0.00 88 1020.4
20260507123050 8 0 0.0 1.6 0.00 0.00 0.00 88 1020.4
20260507121552 8 275 4.8 11.3 0.00 0.00 0.00 87 1020.5
20260507120053 9 0 0.0 1.6 0.00 0.00 0.00 89 1020.5
20260507114609 9 278 0.0 6.4 0.00 0.00 0.00 88 1020.6
20260507113055 9 246 0.0 6.4 0.00 0.00 0.00 89 1020.5
20260507111552 9 0 0.0 1.6 0.00 0.00 0.00 89 1020.6
20260507110057 10 270 0.0 4.8 0.00 0.00 0.00 89 1020.6
20260507104555 10 261 0.0 12.9 0.00 0.00 0.00 89 1020.8
20260507103054 10 0 0.0 4.8 0.00 0.00 0.00 88 1020.9
20260507101552 10 0 0.0 6.4 0.00 0.00 0.00 88 1020.9
20260507100054 10 0 0.0 3.2 0.00 0.00 0.00 88 1021.2
20260507094555 10 0 0.0 3.2 0.00 0.00 0.00 88 1021.2
20260507093056 10 288 0.0 1.6 0.00 0.00 0.00 88 1021.3
20260507091552 10 0 0.0 3.2 0.00 0.00 0.00 88 1021.3
20260507090051 10 0 0.0 3.2 0.00 0.00 0.00 88 1021.5
20260507084553 10 0 0.0 4.8 0.00 0.00 0.00 88 1021.5
20260507083051 10 0 0.0 4.8 0.00 0.00 0.00 87 1021.5
20260507081553 10 203 0.0 4.8 0.00 0.00 0.00 87 1021.5
20260507080100 10 0 0.0 1.6 0.00 0.00 0.00 87 1021.5
20260507074606 10 0 0.0 1.6 0.00 0.00 0.00 88 1021.5